Location: Nairn
(57.5833°N, 3.8667°W)
Time: 02:09:45
(UTC+00:00)

Altair - Visible Passes

Search period start: 03 October 2022 00:00
Search period end: 13 October 2022 00:00
Orbit: 1501 x 1682 km, 47.2° (Epoch: 02 October)

Date Brightness Start Highest point End Pass type
(mag) Time Alt. Az. Time Alt. Az. Time Alt. Az.
03 Oct 9.2 04:36:21 10° S 04:43:35 24° SE 04:50:59 10° E visible
04 Oct 9.2 04:11:36 10° S 04:18:34 23° SE 04:25:41 10° E visible
05 Oct 9.2 03:46:53 10° S 03:53:33 21° SE 04:00:21 10° E visible
05 Oct 8.6 05:47:22 10° SW 05:56:13 40° SSE 06:05:18 10° E visible
06 Oct 9.2 03:22:13 10° S 03:28:32 20° SE 03:34:59 10° E visible
06 Oct 8.6 05:22:24 10° SW 05:31:07 39° SSE 05:40:06 10° E visible
07 Oct 9.2 02:58:17 12° SSE 03:03:33 18° SE 03:09:35 10° E visible
07 Oct 8.6 04:57:25 10° SW 05:06:02 38° SSE 05:14:54 10° E visible
08 Oct 9.2 02:34:44 13° SSE 02:38:33 17° SE 02:44:09 10° E visible
08 Oct 8.6 04:32:46 11° SW 04:40:56 36° SSE 04:49:42 10° E visible
09 Oct 9.2 02:11:09 14° SSE 02:13:34 16° SE 02:18:39 10° E visible
09 Oct 8.6 04:09:11 16° SSW 04:15:51 35° SSE 04:24:29 10° E visible
10 Oct 9.2 01:47:31 14° SE 01:48:36 14° SE 01:53:04 10° E visible
10 Oct 8.5 03:45:33 20° SSW 03:50:47 33° SSE 03:59:16 10° E visible
10 Oct 8.3 05:44:55 10° WSW 05:54:01 47° S 06:03:24 10° ESE visible
11 Oct 9.3 01:23:51 13° SE 01:23:51 13° SE 01:27:21 10° ESE visible
11 Oct 8.5 03:21:52 24° S 03:25:44 32° SSE 03:34:03 10° E visible
11 Oct 8.2 05:19:54 10° WSW 05:28:54 46° S 05:38:15 10° ESE visible
12 Oct 9.4 01:00:08 11° ESE 01:00:08 11° ESE 01:01:23 10° ESE visible
12 Oct 8.5 02:58:10 27° S 03:00:40 30° SSE 03:08:50 10° E visible
12 Oct 8.2 04:56:11 15° SW 05:03:47 46° S 05:13:05 10° ESE visible
